Time,TemperatureF,DewpointF,PressureIn,WindDirection,WindDirectionDegrees,WindSpeedMPH,WindSpeedGustMPH,Humidity,HourlyPrecipIn,Conditions,Clouds,dailyrainin,SoftwareType,DateUTC
2013-01-03 00:03:00,17.0,16.0,-100.00,SW,225,5.0,8.0,95,-99.99,,,-99.99,,2013-01-03 05:03:00,
2013-01-03 00:12:00,17.0,16.0,-100.00,SW,235,6.0,8.0,96,-99.99,,,-99.99,,2013-01-03 05:12:00,
2013-01-03 00:23:00,17.0,17.0,-100.00,SW,225,4.0,7.0,96,-99.99,,,-99.99,,2013-01-03 05:23:00,
2013-01-03 00:33:00,18.0,17.0,-100.00,SW,225,6.0,8.0,96,-99.99,,,-99.99,,2013-01-03 05:33:00,
2013-01-03 00:42:00,18.0,17.0,-100.00,WSW,245,6.0,9.0,96,-99.99,,,-99.99,,2013-01-03 05:42:00,
2013-01-03 00:52:00,18.0,17.0,-100.00,SW,235,5.0,7.0,96,-99.99,,,-99.99,,2013-01-03 05:52:00,
2013-01-03 01:02:00,18.0,17.0,-100.00,WSW,240,6.0,7.0,96,-99.99,,,-99.99,,2013-01-03 06:02:00,
2013-01-03 01:12:00,19.0,18.0,-100.00,West,260,4.0,7.0,96,-99.99,,,-99.99,,2013-01-03 06:12:00,
2013-01-03 01:22:00,19.0,19.0,-100.00,WSW,255,8.0,11.0,96,-99.99,,,-99.99,,2013-01-03 06:22:00,
2013-01-03 01:33:00,19.0,19.0,-100.00,West,265,7.0,12.0,96,-99.99,,,-99.99,,2013-01-03 06:33:00,
2013-01-03 01:42:00,19.0,18.0,-100.00,SW,215,6.0,10.0,96,-99.99,,,-99.99,,2013-01-03 06:42:00,
2013-01-03 01:52:00,17.0,16.0,-100.00,SW,225,4.0,6.0,96,-99.99,,,-99.99,,2013-01-03 06:52:00,
2013-01-03 02:02:00,16.0,16.0,-100.00,SW,220,4.0,6.0,96,-99.99,,,-99.99,,2013-01-03 07:02:00,
2013-01-03 02:12:00,16.0,15.0,-100.00,SW,225,4.0,6.0,96,-99.99,,,-99.99,,2013-01-03 07:12:00,
2013-01-03 02:22:00,15.0,15.0,-100.00,SW,225,5.0,6.0,97,-99.99,,,-99.99,,2013-01-03 07:22:00,
2013-01-03 02:33:00,15.0,15.0,-100.00,SW,225,3.0,6.0,98,-99.99,,,-99.99,,2013-01-03 07:33:00,
2013-01-03 02:42:00,15.0,14.0,-100.00,SW,220,3.0,5.0,98,-99.99,,,-99.99,,2013-01-03 07:42:00,
2013-01-03 02:52:00,14.0,14.0,-100.00,SW,225,4.0,5.0,98,-99.99,,,-99.99,,2013-01-03 07:52:00,
2013-01-03 03:02:00,14.0,14.0,-100.00,SW,225,4.0,6.0,99,-99.99,,,-99.99,,2013-01-03 08:02:00,
2013-01-03 03:12:00,14.0,14.0,-100.00,SW,215,6.0,7.0,99,-99.99,,,-99.99,,2013-01-03 08:12:00,
2013-01-03 03:22:00,14.0,14.0,-100.00,SW,235,4.0,6.0,99,-99.99,,,-99.99,,2013-01-03 08:22:00,
2013-01-03 03:33:00,13.0,13.0,-100.00,SW,225,4.0,6.0,99,-99.99,,,-99.99,,2013-01-03 08:33:00,
2013-01-03 03:42:00,13.0,13.0,-100.00,SW,230,6.0,7.0,99,-99.99,,,-99.99,,2013-01-03 08:42:00,
2013-01-03 03:53:00,13.0,13.0,-100.00,SW,225,4.0,7.0,99,-99.99,,,-99.99,,2013-01-03 08:53:00,
2013-01-03 04:03:00,14.0,14.0,-100.00,SW,235,6.0,7.0,99,-99.99,,,-99.99,,2013-01-03 09:03:00,
2013-01-03 04:12:00,14.0,14.0,-100.00,SW,230,6.0,9.0,99,-99.99,,,-99.99,,2013-01-03 09:12:00,
2013-01-03 04:22:00,14.0,14.0,-100.00,SW,235,4.0,7.0,99,-99.99,,,-99.99,,2013-01-03 09:22:00,
2013-01-03 04:33:00,13.0,13.0,-100.00,SW,230,6.0,8.0,99,-99.99,,,-99.99,,2013-01-03 09:33:00,
2013-01-03 04:43:00,13.0,13.0,-100.00,SW,225,5.0,7.0,99,-99.99,,,-99.99,,2013-01-03 09:43:00,
2013-01-03 04:52:00,13.0,13.0,-100.00,SW,220,5.0,7.0,99,-99.99,,,-99.99,,2013-01-03 09:52:00,
2013-01-03 05:02:00,13.0,13.0,-100.00,SW,220,6.0,9.0,99,-99.99,,,-99.99,,2013-01-03 10:02:00,
2013-01-03 05:12:00,13.0,13.0,-100.00,SW,225,6.0,9.0,99,-99.99,,,-99.99,,2013-01-03 10:12:00,
2013-01-03 05:22:00,13.0,13.0,-100.00,SW,225,6.0,9.0,99,-99.99,,,-99.99,,2013-01-03 10:22:00,
2013-01-03 05:33:00,13.0,13.0,-100.00,SW,215,6.0,8.0,99,-99.99,,,-99.99,,2013-01-03 10:33:00,
2013-01-03 05:42:00,13.0,13.0,-100.00,SW,225,4.0,8.0,99,-99.99,,,-99.99,,2013-01-03 10:42:00,
2013-01-03 05:52:00,13.0,13.0,-100.00,SW,215,6.0,8.0,99,-99.99,,,-99.99,,2013-01-03 10:52:00,
2013-01-03 06:02:00,13.0,13.0,-100.00,SW,225,5.0,9.0,99,-99.99,,,-99.99,,2013-01-03 11:02:00,
2013-01-03 06:12:00,13.0,13.0,-100.00,SW,220,7.0,9.0,99,-99.99,,,-99.99,,2013-01-03 11:12:00,
2013-01-03 06:23:00,13.0,13.0,-100.00,SW,220,6.0,9.0,99,-99.99,,,-99.99,,2013-01-03 11:23:00,
2013-01-03 06:33:00,12.0,12.0,-100.00,SW,225,4.0,7.0,99,-99.99,,,-99.99,,2013-01-03 11:33:00,
2013-01-03 06:43:00,12.0,12.0,-100.00,SW,225,4.0,7.0,99,-99.99,,,-99.99,,2013-01-03 11:43:00,
2013-01-03 06:53:00,12.0,12.0,-100.00,SW,225,4.0,7.0,99,-99.99,,,-99.99,,2013-01-03 11:53:00,
2013-01-03 07:03:00,12.0,12.0,-100.00,SSW,210,4.0,7.0,99,-99.99,,,-99.99,,2013-01-03 12:03:00,
2013-01-03 07:12:00,12.0,12.0,-100.00,SSW,205,6.0,7.0,99,-99.99,,,-99.99,,2013-01-03 12:12:00,
2013-01-03 07:22:00,13.0,13.0,-100.00,SW,225,6.0,9.0,99,-99.99,,,-99.99,,2013-01-03 12:22:00,
2013-01-03 07:33:00,13.0,13.0,-100.00,SW,225,7.0,10.0,99,-99.99,,,-99.99,,2013-01-03 12:33:00,
2013-01-03 07:42:00,13.0,13.0,-100.00,SW,230,6.0,9.0,99,-99.99,,,-99.99,,2013-01-03 12:42:00,
2013-01-03 07:52:00,13.0,13.0,-100.00,SW,225,6.0,11.0,99,-99.99,,,-99.99,,2013-01-03 12:52:00,
2013-01-03 08:02:00,13.0,13.0,-100.00,SW,220,6.0,10.0,99,-99.99,,,-99.99,,2013-01-03 13:02:00,
2013-01-03 08:13:00,13.0,13.0,-100.00,SW,220,6.0,11.0,99,-99.99,,,-99.99,,2013-01-03 13:13:00,
2013-01-03 08:22:00,13.0,13.0,-100.00,SW,230,7.0,11.0,99,-99.99,,,-99.99,,2013-01-03 13:22:00,
2013-01-03 08:33:00,13.0,13.0,-100.00,SW,225,7.0,12.0,99,-99.99,,,-99.99,,2013-01-03 13:33:00,
2013-01-03 08:42:00,13.0,13.0,-100.00,SW,225,8.0,12.0,99,-99.99,,,-99.99,,2013-01-03 13:42:00,
2013-01-03 08:52:00,13.0,13.0,-100.00,SW,230,8.0,12.0,99,-99.99,,,-99.99,,2013-01-03 13:52:00,
2013-01-03 09:03:00,14.0,14.0,-100.00,SW,235,9.0,13.0,98,-99.99,,,-99.99,,2013-01-03 14:03:00,
2013-01-03 09:12:00,15.0,15.0,-100.00,SW,235,7.0,12.0,96,-99.99,,,-99.99,,2013-01-03 14:12:00,
2013-01-03 09:23:00,16.0,14.0,-100.00,SW,225,9.0,12.0,94,-99.99,,,-99.99,,2013-01-03 14:23:00,
2013-01-03 09:33:00,17.0,15.0,-100.00,SW,235,9.0,12.0,91,-99.99,,,-99.99,,2013-01-03 14:33:00,
2013-01-03 09:42:00,17.0,15.0,-100.00,SW,235,9.0,14.0,89,-99.99,,,-99.99,,2013-01-03 14:42:00,
2013-01-03 09:53:00,18.0,15.0,-100.00,SW,235,9.0,12.0,88,-99.99,,,-99.99,,2013-01-03 14:53:00,
2013-01-03 10:03:00,19.0,15.0,-100.00,SW,230,7.0,12.0,87,-99.99,,,-99.99,,2013-01-03 15:03:00,
2013-01-03 10:12:00,19.0,16.0,-100.00,SW,230,6.0,11.0,86,-99.99,,,-99.99,,2013-01-03 15:12:00,
2013-01-03 10:23:00,21.0,17.0,-100.00,WSW,240,7.0,13.0,84,-99.99,,,-99.99,,2013-01-03 15:23:00,
2013-01-03 10:33:00,22.0,17.0,-100.00,SW,235,9.0,16.0,81,-99.99,,,-99.99,,2013-01-03 15:33:00,
2013-01-03 10:43:00,22.0,17.0,-100.00,WSW,245,10.0,14.0,79,-99.99,,,-99.99,,2013-01-03 15:43:00,
2013-01-03 10:53:00,22.0,16.0,-100.00,SW,230,9.0,14.0,78,-99.99,,,-99.99,,2013-01-03 15:53:00,
2013-01-03 11:03:00,22.0,16.0,-100.00,WSW,255,8.0,14.0,77,-99.99,,,-99.99,,2013-01-03 16:03:00,
2013-01-03 11:12:00,23.0,17.0,-100.00,WSW,250,9.0,15.0,76,-99.99,,,-99.99,,2013-01-03 16:12:00,
2013-01-03 11:22:00,23.0,16.0,-100.00,WSW,250,11.0,14.0,74,-99.99,,,-99.99,,2013-01-03 16:22:00,
2013-01-03 11:33:00,24.0,16.0,-100.00,WSW,245,9.0,16.0,73,-99.99,,,-99.99,,2013-01-03 16:33:00,
2013-01-03 11:43:00,24.0,17.0,-100.00,West,260,9.0,16.0,72,-99.99,,,-99.99,,2013-01-03 16:43:00,
2013-01-03 11:53:00,24.0,17.0,-100.00,West,265,10.0,15.0,72,-99.99,,,-99.99,,2013-01-03 16:53:00,
2013-01-03 12:03:00,24.0,17.0,-100.00,West,265,10.0,15.0,72,-99.99,,,-99.99,,2013-01-03 17:03:00,
2013-01-03 12:12:00,26.0,18.0,-100.00,West,260,9.0,14.0,71,-99.99,,,-99.99,,2013-01-03 17:12:00,
2013-01-03 12:23:00,26.0,18.0,-100.00,West,270,9.0,16.0,71,-99.99,,,-99.99,,2013-01-03 17:23:00,
2013-01-03 12:33:00,27.0,18.0,-100.00,West,280,11.0,14.0,70,-99.99,,,-99.99,,2013-01-03 17:33:00,
2013-01-03 12:43:00,27.0,19.0,-100.00,West,260,9.0,17.0,69,-99.99,,,-99.99,,2013-01-03 17:43:00,
2013-01-03 12:53:00,28.0,19.0,-100.00,WSW,255,11.0,23.0,69,-99.99,,,-99.99,,2013-01-03 17:53:00,
2013-01-03 13:03:00,28.0,20.0,-100.00,West,265,12.0,17.0,70,-99.99,,,-99.99,,2013-01-03 18:03:00,
2013-01-03 13:13:00,28.0,20.0,-100.00,West,275,12.0,20.0,70,-99.99,,,-99.99,,2013-01-03 18:13:00,
2013-01-03 13:22:00,28.0,20.0,-100.00,West,270,14.0,19.0,70,-99.99,,,-99.99,,2013-01-03 18:22:00,
2013-01-03 13:33:00,28.0,20.0,-100.00,West,270,10.0,15.0,70,-99.99,,,-99.99,,2013-01-03 18:33:00,
2013-01-03 13:43:00,28.0,20.0,-100.00,West,265,11.0,17.0,71,-99.99,,,-99.99,,2013-01-03 18:43:00,
2013-01-03 13:53:00,28.0,20.0,-100.00,West,275,12.0,17.0,71,-99.99,,,-99.99,,2013-01-03 18:53:00,
2013-01-03 14:03:00,29.0,21.0,-100.00,West,275,11.0,21.0,71,-99.99,,,-99.99,,2013-01-03 19:03:00,
2013-01-03 14:12:00,29.0,21.0,-100.00,West,280,11.0,20.0,72,-99.99,,,-99.99,,2013-01-03 19:12:00,
2013-01-03 14:56:00,29.0,23.0,-100.00,West,280,7.0,16.0,76,-99.99,,,-99.99,,2013-01-03 19:56:00,
2013-01-03 15:03:00,29.0,24.0,-100.00,West,270,11.0,17.0,79,-99.99,,,-99.99,,2013-01-03 20:03:00,
2013-01-03 15:12:00,29.0,24.0,-100.00,WNW,285,10.0,19.0,81,-99.99,,,-99.99,,2013-01-03 20:12:00,
2013-01-03 15:22:00,28.0,24.0,-100.00,West,270,12.0,18.0,81,-99.99,,,-99.99,,2013-01-03 20:22:00,
2013-01-03 15:33:00,28.0,24.0,-100.00,West,265,11.0,15.0,82,-99.99,,,-99.99,,2013-01-03 20:33:00,
2013-01-03 15:42:00,28.0,24.0,-100.00,West,270,12.0,18.0,82,-99.99,,,-99.99,,2013-01-03 20:42:00,
2013-01-03 15:53:00,28.0,23.0,-100.00,West,270,12.0,17.0,83,-99.99,,,-99.99,,2013-01-03 20:53:00,
2013-01-03 16:03:00,28.0,24.0,-100.00,West,270,9.0,16.0,83,-99.99,,,-99.99,,2013-01-03 21:03:00,
2013-01-03 16:12:00,28.0,24.0,-100.00,West,270,11.0,18.0,84,-99.99,,,-99.99,,2013-01-03 21:12:00,
2013-01-03 16:23:00,28.0,24.0,-100.00,WNW,285,10.0,17.0,85,-99.99,,,-99.99,,2013-01-03 21:23:00,
2013-01-03 16:37:00,28.0,24.0,-100.00,WNW,290,8.0,16.0,86,-99.99,,,-99.99,,2013-01-03 21:37:00,
2013-01-03 16:48:00,28.0,24.0,-100.00,West,270,11.0,16.0,86,-99.99,,,-99.99,,2013-01-03 21:48:00,
2013-01-03 17:03:00,28.0,24.0,-100.00,West,280,11.0,20.0,87,-99.99,,,-99.99,,2013-01-03 22:03:00,
2013-01-03 17:12:00,28.0,25.0,-100.00,WNW,290,7.0,16.0,88,-99.99,,,-99.99,,2013-01-03 22:12:00,
2013-01-03 17:22:00,28.0,25.0,-100.00,West,280,13.0,16.0,89,-99.99,,,-99.99,,2013-01-03 22:22:00,
2013-01-03 17:33:00,28.0,25.0,-100.00,West,280,7.0,14.0,90,-99.99,,,-99.99,,2013-01-03 22:33:00,
2013-01-03 17:43:00,28.0,26.0,-100.00,West,270,8.0,15.0,91,-99.99,,,-99.99,,2013-01-03 22:43:00,
2013-01-03 17:52:00,28.0,26.0,-100.00,West,275,9.0,16.0,92,-99.99,,,-99.99,,2013-01-03 22:52:00,
2013-01-03 18:03:00,28.0,26.0,-100.00,West,275,8.0,16.0,92,-99.99,,,-99.99,,2013-01-03 23:03:00,
2013-01-03 18:12:00,28.0,26.0,-100.00,West,270,9.0,16.0,93,-99.99,,,-99.99,,2013-01-03 23:12:00,
2013-01-03 18:22:00,28.0,26.0,-100.00,WNW,285,9.0,16.0,94,-99.99,,,-99.99,,2013-01-03 23:22:00,
2013-01-03 18:33:00,27.0,26.0,-100.00,West,275,9.0,17.0,94,-99.99,,,-99.99,,2013-01-03 23:33:00,
2013-01-03 18:43:00,27.0,26.0,-100.00,West,275,9.0,17.0,94,-99.99,,,-99.99,,2013-01-03 23:43:00,
2013-01-03 18:52:00,27.0,26.0,-100.00,WNW,290,12.0,17.0,94,-99.99,,,-99.99,,2013-01-03 23:52:00,
2013-01-03 19:03:00,27.0,26.0,-100.00,WNW,290,9.0,17.0,94,-99.99,,,-99.99,,2013-01-04 00:03:00,
2013-01-03 19:12:00,27.0,26.0,-100.00,West,270,12.0,18.0,94,-99.99,,,-99.99,,2013-01-04 00:12:00,
2013-01-03 19:23:00,27.0,26.0,-100.00,West,275,10.0,19.0,94,-99.99,,,-99.99,,2013-01-04 00:23:00,
2013-01-03 19:32:00,27.0,26.0,-100.00,WNW,290,9.0,19.0,94,-99.99,,,-99.99,,2013-01-04 00:32:00,
2013-01-03 19:42:00,27.0,26.0,-100.00,WNW,285,12.0,15.0,94,-99.99,,,-99.99,,2013-01-04 00:42:00,
2013-01-03 19:52:00,27.0,26.0,-100.00,West,275,9.0,23.0,94,-99.99,,,-99.99,,2013-01-04 00:52:00,
2013-01-03 20:02:00,27.0,26.0,-100.00,West,280,10.0,17.0,94,-99.99,,,-99.99,,2013-01-04 01:02:00,
2013-01-03 20:12:00,27.0,26.0,-100.00,WNW,285,9.0,18.0,94,-99.99,,,-99.99,,2013-01-04 01:12:00,
2013-01-03 20:22:00,27.0,26.0,-100.00,West,270,9.0,14.0,94,-99.99,,,-99.99,,2013-01-04 01:22:00,
2013-01-03 20:33:00,27.0,26.0,-100.00,West,270,9.0,14.0,94,-99.99,,,-99.99,,2013-01-04 01:33:00,
2013-01-03 20:42:00,27.0,26.0,-100.00,West,280,8.0,16.0,95,-99.99,,,-99.99,,2013-01-04 01:42:00,
2013-01-03 20:52:00,27.0,26.0,-100.00,West,275,7.0,14.0,95,-99.99,,,-99.99,,2013-01-04 01:52:00,
2013-01-03 21:02:00,27.0,26.0,-100.00,WNW,285,11.0,19.0,96,-99.99,,,-99.99,,2013-01-04 02:02:00,
2013-01-03 21:12:00,27.0,26.0,-100.00,West,275,9.0,15.0,96,-99.99,,,-99.99,,2013-01-04 02:12:00,
2013-01-03 21:22:00,27.0,26.0,-100.00,West,270,10.0,15.0,96,-99.99,,,-99.99,,2013-01-04 02:22:00,
2013-01-03 21:33:00,27.0,26.0,-100.00,West,275,8.0,16.0,96,-99.99,,,-99.99,,2013-01-04 02:33:00,
2013-01-03 21:42:00,27.0,26.0,-100.00,West,275,9.0,14.0,97,-99.99,,,-99.99,,2013-01-04 02:42:00,
2013-01-03 21:52:00,27.0,26.0,-100.00,WNW,285,8.0,14.0,97,-99.99,,,-99.99,,2013-01-04 02:52:00,
2013-01-03 22:03:00,27.0,27.0,-100.00,WNW,300,7.0,13.0,97,-99.99,,,-99.99,,2013-01-04 03:03:00,
2013-01-03 22:12:00,27.0,27.0,-100.00,West,280,6.0,11.0,98,-99.99,,,-99.99,,2013-01-04 03:12:00,
2013-01-03 22:22:00,27.0,27.0,-100.00,West,280,8.0,14.0,98,-99.99,,,-99.99,,2013-01-04 03:22:00,
2013-01-03 22:33:00,27.0,27.0,-100.00,West,275,9.0,13.0,98,-99.99,,,-99.99,,2013-01-04 03:33:00,
2013-01-03 22:42:00,27.0,27.0,-100.00,West,275,6.0,14.0,98,-99.99,,,-99.99,,2013-01-04 03:42:00,
2013-01-03 22:52:00,27.0,27.0,-100.00,West,270,6.0,12.0,98,-99.99,,,-99.99,,2013-01-04 03:52:00,
2013-01-03 23:02:00,27.0,27.0,-100.00,West,280,9.0,12.0,98,-99.99,,,-99.99,,2013-01-04 04:02:00,
2013-01-03 23:12:00,27.0,27.0,-100.00,West,270,9.0,12.0,98,-99.99,,,-99.99,,2013-01-04 04:12:00,
2013-01-03 23:22:00,27.0,27.0,-100.00,West,275,8.0,12.0,98,-99.99,,,-99.99,,2013-01-04 04:22:00,
2013-01-03 23:32:00,27.0,27.0,-100.00,West,270,10.0,14.0,99,-99.99,,,-99.99,,2013-01-04 04:32:00,
2013-01-03 23:42:00,27.0,27.0,-100.00,West,270,7.0,15.0,99,-99.99,,,-99.99,,2013-01-04 04:42:00,
2013-01-03 23:52:00,27.0,27.0,-100.00,West,270,10.0,13.0,99,-99.99,,,-99.99,,2013-01-04 04:52:00,